"Pseudo-MPEC" for 1999-066B = XMM-Newton booster = NORAD 25990

Created 2018 Jul 2 13:30:00 UT using Find_Orb

Click here for an explanation of pseudo-MPECs

 
 Astrometry: 
1999-066B    tC2016 06 15.35285 19 40 38.83 -46 48 52.1    .20  x15.3 RqD0549Y00
1999-066B    tC2016 06 15.35417 19 40 54.35 -46 52 40.8    .20  x15.1 RqD0549Y00
1999-066B    tC2016 06 15.35589 19 41 14.95 -46 57 40.5    .20  x15.2 RqD0549Y00
1999-066B     C2016 06 19.29475 21 39 54.40 -61 44 23.9    .20  x15.3 RqD0549Y00
1999-066B     C2016 06 19.29589 21 40 11.74 -61 46 18.3    .20  x15.2 RqD0549Y00
1999-066B     C2016 06 19.29651 21 40 21.28 -61 47 21.1    .20  x15.2 RqD0549Y00
1999-066B    tC2016 07 05.24619 19 47 30.42 -47 50 16.4    .20  x14.6 RqD0549Y00
1999-066B    tC2016 07 05.24711 19 47 39.52 -47 53 02.8    .20  x14.6 RqD0549Y00
1999-066B    tC2016 07 05.24827 19 47 50.98 -47 56 31.8    .20  x14.6 RqD0549Y00
1999-066B     C2016 07 09.30185 22 22 08.07 -64 24 31.9    .20  x15.5 RqD0549Y00
1999-066B     C2016 07 09.30324 22 22 34.06 -64 25 47.2    .20  x15.5 RqD0549Y00
1999-066B     C2016 07 09.30394 22 22 47.29 -64 26 24.5    .20  x15.7 RqD0549Y00
1999-066B    tC2016 07 18.16406 21 22 07.69 -59 47 11.9    .20  x15.3 RqD0550Y00
1999-066B    tC2016 07 18.16492 21 22 19.25 -59 49 02.9    .20  x15.4 RqD0550Y00
1999-066B    tC2016 07 18.16579 21 22 30.95 -59 50 51.9    .20  x15.4 RqD0550Y00
1999-066B    tC2016 08 03.00459 19 19 53.02 -35 46 25.6    .20  x14.7 RqD0550Y00
1999-066B    tC2016 08 03.00564 19 20 03.00 -35 52 41.9    .20  x14.8 RqD0550Y00
1999-066B    tC2016 08 03.00711 19 20 16.88 -36 01 24.9    .20  x14.7 RqD0550Y00
1999-066B     C2016 08 25.16491 21 14 47.60 -60 26 29.0    .20  x15.4 RqD0550Y00
1999-066B     C2016 08 25.16645 21 15 09.62 -60 28 33.5    .20  x15.3 RqD0550Y00
1999-066B     C2016 08 25.16803 21 15 32.22 -60 30 39.3    .20  x15.3 RqD0550Y00
1999-066B     C2016 08 27.09043 22 18 20.41 -63 41 57.1    .20  x15.6 RqD0550Y00
1999-066B     C2016 08 27.09148 22 18 39.13 -63 43 26.8    .20  x15.6 RqD0550Y00
1999-066B     C2016 08 27.09254 22 18 57.18 -63 44 53.7    .20  x15.5 RqD0550Y00
1999-066B    tC2016 08 29.21122 00 53 40.66 -65 19 40.0    .20  x15.2 RqD0550Y00
1999-066B    tC2016 08 29.21213 00 54 04.30 -65 18 53.0    .20  x15.3 RqD0550Y00
1999-066B    tC2016 08 29.21305 00 54 27.88 -65 18 06.6    .20  x15.3 RqD0550Y00
1999-066B    tC2016 09 03.00395 20 25 31.01 -53 20 27.4    .20  x15.0 RqD0550Y00
1999-066B    tC2016 09 03.00481 20 25 39.59 -53 22 54.4    .20  x15.0 RqD0550Y00
1999-066B    tC2016 09 03.00607 20 25 51.97 -53 26 27.0    .20  x15.0 RqD0550Y00
1999-066B    tC2016 09 03.06588 20 36 00.45 -55 56 10.0    .20  x15.5 RqD0550Y00
1999-066B    tC2016 09 03.06699 20 36 12.13 -55 58 32.9    .20  x15.6 RqD0550Y00
1999-066B    tC2016 09 03.06803 20 36 23.36 -56 00 51.6    .20  x15.5 RqD0550Y00
1999-066B    tC2016 09 04.96506 21 23 55.02 -58 50 27.7    .20  x15.0 RqD0550Y00
1999-066B    tC2016 09 04.96599 21 24 08.40 -58 52 43.4    .20  x15.1 RqD0550Y00
1999-066B    tC2016 09 04.96704 21 24 23.61 -58 55 18.0    .20  x15.1 RqD0550Y00
1999-066B     C2016 09 05.04394 21 42 53.32 -61 37 04.5    .20  x15.7 RqD0550Y00
1999-066B     C2016 09 05.04494 21 43 08.38 -61 38 53.5    .20  x15.5 RqD0550Y00
1999-066B     C2016 09 05.04586 21 43 21.62 -61 40 29.6    .20  x15.4 RqD0550Y00
1999-066B    tC2016 09 09.21117 02 25 53.86 -60 33 39.6    .20  x15.8 RqD0550Y00
1999-066B    tC2016 09 09.21224 02 26 21.08 -60 30 51.7    .20  x15.7 RqD0550Y00
1999-066B    tC2016 09 09.21374 02 27 00.11 -60 26 50.7    .20  x15.9 RqD0550Y00
1999-066B     C2017 06 30.27177 20 33 22.29 -58 31 09.0    .20   15.2 RqD0557Y00
1999-066B     C2017 06 30.27351 20 33 40.08 -58 33 33.9    .20   15.2 RqD0557Y00
1999-066B     C2017 06 30.27521 20 33 57.60 -58 35 55.1    .20   15.1 RqD0557Y00
1999-066B    tC2017 07 17.93086 19 08 46.47 -36 35 45.6    .20   15.8 RqD0557Y00
1999-066B    tC2017 07 17.93196 19 09 00.20 -36 42 22.4    .20   15.7 RqD0557Y00
1999-066B    tC2017 07 17.93307 19 09 14.19 -36 49 07.1    .20   15.7 RqD0557Y00
1999-066B     C2017 07 20.13895 20 37 46.56 -58 06 01.4    .20   15.7 RqD0557Y00
1999-066B     C2017 07 20.14011 20 37 57.58 -58 08 11.1    .20   15.7 RqD0557Y00
1999-066B     C2017 07 20.14138 20 38 09.62 -58 10 34.8    .20   15.8 RqD0557Y00
1999-066B     C2017 08 02.16609 22 52 48.00 -65 04 07.5    .20   15.4 RqD0557Y00
1999-066B     C2017 08 02.16709 22 53 06.13 -65 04 48.9    .20   15.6 RqD0557Y00
1999-066B     C2017 08 02.16817 22 53 25.43 -65 05 34.1    .20   15.6 RqD0557Y00
1999-066B     C2017 08 31.15020 23 03 48.80 -65 19 31.8    .20   15.5 RqD0557Y00
1999-066B     C2017 08 31.15118 23 04 06.87 -65 19 36.2    .20   15.6 RqD0557Y00
1999-066B     C2017 08 31.15218 23 04 23.80 -65 19 45.4    .20   15.5 RqD0557Y00
1999-066B     C2017 09 20.11687 23 37 51.81 -65 08 34.8    .20   15.0 RqD0558Y00
1999-066B     C2017 09 20.11784 23 38 10.73 -65 08 16.5    .20   15.0 RqD0558Y00
1999-066B     C2017 09 20.11934 23 38 39.83 -65 07 47.0    .20   15.0 RqD0558Y00
1999-066B     C2017 09 20.14110 23 45 47.83 -64 58 13.9    .20   15.6 RqD0558Y00
1999-066B     C2017 09 20.14286 23 46 22.96 -64 57 14.8    .20   15.6 RqD0558Y00
1999-066B     C2017 09 20.14430 23 46 51.62 -64 56 24.7    .20   15.5 RqD0558Y00
1999-066B     C2018 07 02.14835 19 38 31.03 -55 22 46.6    .20   14.6 Rq     Y00
1999-066B     C2018 07 02.14938 19 38 38.76 -55 24 46.5    .20   14.6 Rq     Y00
1999-066B     C2018 07 02.15048 19 38 46.99 -55 26 53.8    .20   14.7 Rq     Y00

Station data:
(Y00) SONEAR Observatory, Oliveira  (S20.715082 W44.784960)  Brazil.
   Observers C. Jacques, E. Pimentel, J. Barros. Measurer C. Jacques. 0.28-m
   f/2.2 astrograph + CCD.

Orbital elements:  1999-066B = XMM-Newton booster = NORAD 25990
   Perigee 2018 May 31.841764 +/- 5.79e-5 TT = 20:12:08 (JD 2458270.341764)
Epoch 2018 Jun  1.0 TT; AMR 0.011814 +/- 0.00282 m2/kg       Gray
M  31.498711 +/- 0.011              (J2000 equator)
n 199.061930735 +/- 3.26e-5         Peri.   79.075944 +/- 0.0030
a 62701.51457 +/- 0.00685           Node    70.071546 +/- 0.0018
e   0.76797456 +/- 2.25e-5          Incl.   62.351964 +/- 0.0015
P2604.17m/1.808d           H 30.1   G  0.15   U  5.9  
q 14548.34630 +/- 1.41    Q 110854.6828 +/- 1.4
24 of 66 observations 2017 June 30-2018 July 2; mean residual 7".176
Residuals in arcseconds: 
160615 Y00( 511-  654+)   160827 Y00( 411-  153+)   170630 Y00 12.3- 10.6+    
160615 Y00( 511-  652+)   160827 Y00( 415-  154+)   170717 Y00 1.29- 5.31+    
160615 Y00( 507-  646+)   160829 Y00( 550-  128-)   170717 Y00 2.41- 8.84+    
160619 Y00( 535-  305+)   160829 Y00( 549-  128-)   170717 Y00 1.15- 6.39+    
160619 Y00( 534-  305+)   160829 Y00( 551-  130-)   170720 Y00 .518+ .273-    
160619 Y00( 533-  304+)   160903 Y00( 345-  331+)   170720 Y00 .495+ 1.18+    
160705 Y00( 472-  581+)   160903 Y00( 344-  330+)   170720 Y00 .222+ .277+    
160705 Y00( 472-  581+)   160903 Y00( 345-  330+)   170802 Y00 11.9- 4.57+    
160705 Y00( 472-  581+)   160903 Y00( 340-  299+)   170802 Y00 9.24- 4.90+    
160709 Y00( 529-  200+)   160903 Y00( 341-  301+)   170802 Y00 8.17- 4.20+    
160709 Y00( 530-  200+)   160903 Y00( 340-  298+)   170831 Y00 1.47+ .772-    
160709 Y00( 531-  200+)   160904 Y00( 356-  223+)   170831 Y00 5.17+ 2.72+    
160718 Y00( 455-  298+)   160904 Y00( 357-  224+)   170831 Y00 .639- 1.03+    
160718 Y00( 455-  296+)   160904 Y00( 356-  222+)   170920 Y00 9.37+ .320+    
160718 Y00( 454-  297+)   160905 Y00( 370-  196+)   170920 Y00 10.0+ .922+    
160803 Y00( 518-  803+)   160905 Y00( 367-  193+)   170920 Y00 9.78+ 1.91+    
160803 Y00( 519-  804+)   160905 Y00( 370-  193+)   170920 Y00 8.05+ 1.46+    
160803 Y00( 520-  807+)   160909 Y00( 611-  397-)   170920 Y00 8.01+ .864+    
160825 Y00( 369-  248+)   160909 Y00( 615-  401-)   170920 Y00 7.08+ .613+    
160825 Y00( 368-  247+)   160909 Y00( 614-  403-)   180702 Y00 6.09+ 13.9-    
160825 Y00( 368-  246+)   170630 Y00 11.9- 10.2+    180702 Y00 6.29+ 13.6-    
160827 Y00( 414-  155+)   170630 Y00 12.3- 10.9+    180702 Y00 6.32+ 13.3-    

Ephemerides (geocentric):
Date (UTC) HH   RA              Dec         delta  elong  mag " sig PA
---- -- -- --  -------------   -----------  ------ -----  --- ---- ---
2018 07 02 00  18 58 00.154   -47 45 40.30   88028 155.1 15.1 12.0 124
2018 07 02 01  19 08 49.620   -49 33 33.99   92079 153.0 15.3 9.76 119
2018 07 02 02  19 19 30.087   -51 09 14.89   95685 151.0 15.4 7.96 114
2018 07 02 03  19 30 06.898   -52 34 51.44   98873 149.2 15.6 6.50 109
2018 07 02 04  19 40 44.488   -53 51 58.21  101666 147.4 15.7 5.31 103
2018 07 02 05  19 51 26.676   -55 01 45.80  104081 145.6 15.8 4.33  96
2018 07 02 06  20 02 16.852   -56 05 07.33  106134 144.0 15.9 3.54  87
2018 07 02 07  20 13 18.101   -57 02 42.70  107836 142.3 15.9 2.91  77
2018 07 02 08  20 24 33.293   -57 55 01.51  109196 140.7 16.0 2.42  66
2018 07 02 09  20 36 05.146   -58 42 25.00  110222 139.2 16.1 2.07  53
2018 07 02 10  20 47 56.257   -59 25 07.40  110919 137.6 16.1 1.84  39
2018 07 02 11  21 00 09.134   -60 03 16.78  111290 136.1 16.2 1.70  26
2018 07 02 12  21 12 46.201   -60 36 55.60  111338 134.6 16.2 1.62  13
2018 07 02 13  21 25 49.800   -61 06 00.90  111062 133.0 16.3 1.57   3
2018 07 02 14  21 39 22.178   -61 30 24.33  110461 131.5 16.3 1.52 175
2018 07 02 15  21 53 25.468   -61 49 51.89  109532 129.9 16.3 1.45 169
2018 07 02 16  22 08 01.670   -62 04 03.39  108270 128.3 16.3 1.35 167
2018 07 02 17  22 23 12.623   -62 12 31.65  106670 126.6 16.4 1.22 168
2018 07 02 18  22 38 59.983   -62 14 41.30  104721 124.8 16.4 1.08 177
2018 07 02 19  22 55 25.220   -62 09 46.97  102413 123.0 16.4 1.04  15
2018 07 02 20  23 12 29.632   -61 56 50.83   99732 121.1 16.4 1.24  37
2018 07 02 21  23 30 14.413   -61 34 38.82   96661 119.1 16.4 1.78  53
2018 07 02 22  23 48 40.779   -61 01 35.11   93179 117.0 16.3 2.67  60
2018 07 02 23  00 07 50.216   -60 15 33.49   89261 114.6 16.3 3.95  63
2018 07 03 00  00 27 44.876   -59 13 43.77   84875 112.0 16.3 5.69  62
2018 07 03 01  00 48 28.247   -57 52 09.13   79982 109.1 16.3 8.10  60
2018 07 03 02  01 10 06.248   -56 05 06.89   74531 105.8 16.2 11.5  57
2018 07 03 03  01 32 49.143   -53 43 56.00   68461 102.0 16.2 16.3  53
2018 07 03 04  01 56 55.075   -50 34 32.99   61686  97.3 16.1 23.7  48
2018 07 03 05  02 22 57.440   -46 12 15.73   54100  91.4 16.0 35.8  44
2018 07 03 06  02 52 02.739   -39 48 31.14   45559  83.4 16.0 57.8  39
2018 07 03 07  03 26 44.976   -29 31 08.17   35894  71.4 16.1  105  33
2018 07 03 08  04 15 09.921   -09 49 30.15   25082  49.8 17??  238  29
2018 07 03 09  06 16 18.565   +38 49 44.06   15177  17.3 22??  703  37
2018 07 03 10  15 03 32.695   +36 42 58.85   17670 100.2 13.3  538 144
2018 07 03 11  16 33 36.815   +01 07 25.07   28511 139.2 13.1  206 151
2018 07 03 12  17 08 36.537   -15 05 32.40   39003 155.0 13.4  107 149
2018 07 03 13  17 31 32.475   -24 31 32.10   48305 162.2 13.6 67.2 146
2018 07 03 14  17 49 24.662   -30 54 16.11   56535 164.5 13.9 46.5 143
2018 07 03 15  18 04 33.983   -35 37 15.67   63858 164.0 14.2 34.1 140
2018 07 03 16  18 18 04.559   -39 18 56.38   70406 162.3 14.4 26.0 137
2018 07 03 17  18 30 31.134   -42 19 39.07   76278 160.2 14.7 20.4 133
2018 07 03 18  18 42 14.845   -44 51 16.81   81551 158.0 14.9 16.3 129
2018 07 03 19  18 53 29.692   -47 01 17.13   86283 155.9 15.1 13.1 125
2018 07 03 20  19 04 25.585   -48 54 36.45   90521 153.9 15.2 10.6 121
2018 07 03 21  19 15 09.939   -50 34 39.43   94302 151.9 15.4 8.68 116
2018 07 03 22  19 25 48.572   -52 03 51.99   97655 150.1 15.5 7.09 111
2018 07 03 23  19 36 26.242   -53 24 00.67  100604 148.3 15.6 5.80 105
2018 07 04 00  19 47 06.988   -54 36 24.67  103168 146.6 15.7 4.74  99
2018 07 04 01  19 57 54.351   -55 42 03.41  105365 145.0 15.8 3.87  91